Regional Weather Roundup
Issued by NWS Portland, ME

Home | Current Version | Previous Version | Text Only | Print | Product List | Glossary On
Versions: 1 2 3 4 5 6 7 8 9 10 11 12 13 14 15 16 17 18 19 20 21 22 23 24 25 26 27 28 29 30 31 32 33 34 35 36 37 38 39 40 41 42 43 44 45 46 47 48 49 50
000
ASUS41 KGYX 020705
RWRGYX
WEATHER ROUNDUP FOR MAINE AND NEW HAMPSHIRE
NATIONAL WEATHER SERVICE GRAY ME
300 AM EDT TUE SEP 02 2014

MEZ002-005-006-010-012-015-018-020-021-024-026-027-029-020800-
MAINE

CITY           SKY/WX    TMP DP  RH WIND       PRES   REMARKS
PORTLAND       FOG       64  63  96 CALM      29.90F VSB 3/4
SANFORD        CLEAR     63  57  82 CALM      29.91F
BAR HARBOR     CLOUDY    61  61 100 CALM      29.94S VSB 1/4
WISCASSET      FOG       65  64  97 CALM      29.92F VSB 1/4
ROCKLAND       CLOUDY    61  61 100 E3        29.91F VSB 1/4
FRYEBURG       CLOUDY    60  58  92 CALM      29.92F
LEWISTONAUBURN CLOUDY    63  61  94 CALM      29.91F VSB 1/4
AUGUSTA        FOG       66  65  96 CALM      29.92S VSB 1/4
WATERVILLE       N/A     64  64 100 CALM      29.88S VSB 1/4
BANGOR         MOCLDY    67  65  93 SE3       29.92F
GREENVILLE       N/A     64  63  96 SE5       29.93F
MILLINOCKET    CLOUDY    67  65  93 SE3       29.94S FOG
HOULTON        CLOUDY    65  63  93 CALM      29.93F
PRESQUE ISLE   CLOUDY    64  61  88 S6        29.93R
FRENCHVILLE    CLOUDY    61  61 100 S8        29.93S
CARIBOU        CLOUDY    63  62  97 S5        29.93S FOG
$$

NHZ002-005-008-009-011-012-014-020800-
NEW HAMPSHIRE

CITY           SKY/WX    TMP DP  RH WIND       PRES   REMARKS
PORTSMOUTH     CLEAR     67  66  96 CALM      29.89F
ROCHESTER      MOCLDY    65  63  93 CALM      29.90F
NASHUA         CLEAR     70  69  96 CALM      29.90F
MANCHESTER     CLEAR     71  67  87 CALM      29.88F
CONCORD        MOCLDY    63  63 100 CALM      29.90F
LACONIA        PTCLDY    64  61  88 CALM      29.90F
PLYMOUTH       FAIR      60  60 100 CALM      29.91F FOG
BERLIN         NOT AVBL
WHITEFIELD     CLEAR     56  54  93 CALM      29.92F FOG
JAFFREY        MOCLDY    65  63  93 CALM      29.94F
LEBANON        CLOUDY    64  61  90 CALM      29.90F
MT WASHINGTON  FOG       54  54 100 W26         N/A  VSB 1/16
$$

VTZ005-007-008-020800-
VERMONT

CITY           SKY/WX    TMP DP  RH WIND       PRES   REMARKS
ST JOHNSBURY     N/A     61  59  93 MISG      29.89F
MONTPELIER     CLEAR     62  61  96 CALM      29.94F FOG
BURLINGTON     PTCLDY    73  64  73 S6        29.84F
$$

MAZ007-012-024-CTZ003-RIZ002-NYZ038-NYZ072-020800-
SOUTHERN NEW ENGLAND AND NY

CITY           SKY/WX    TMP DP  RH WIND       PRES   REMARKS
BOSTON         CLEAR     73  70  90 S5        29.90F
WORCESTER      CLEAR     69  68  96 SW7       29.94F FOG
NANTUCKET      FOG       68  68 100 SW9       29.94F VSB 1/2
PROVIDENCE     CLOUDY    72  70  93 S5        29.92F
HARTFORD       MOCLDY    74  71  91 S6        29.89F
ALBANY         MOCLDY    75  70  84 S7        29.87F
NEW YORK CITY  CLEAR     80  73  79 S6        29.91F
$$

ANZ081-ANZ082-ANZ150-NHZ014-MEZ023>029-020800-
COASTAL MARINE OBSERVATIONS

STATION/POSITION TIME  TEMP    WIND        PRES    WAVE
                       AIR SEA DIR/SP/G            HT/PER
                 (UTC) (F)     (DEG/KT/KT) (MB)    (FT/S)
MATINICUS ROCK   0600          160/  6/  7 1013.1S
PORTLAND WX BUOY 0650   66 63  160/  2/  2 1012.3F   2/ 8
WELLS            0600   65 60  240/  2/  3 1011.9F
ISLE OF SHOALS   0600   72     240/  5/  5 1012.2F
JEFFREYS LEDGE   0621      67                N/A     2/ 9
CASHES LEDGE BUO 0650   67 65              1012.3F   3/ 7
$$

.............KEY..............
   WCI - WIND CHILL
   TC  - TEMPERATURE IN CELSIUS
   VSB - VISIBILITY IN MILES
   HX  - HEAT INDEX
   FAIR- INDICATES FEW OR NO CLOUDS BELOW 12,000 FT, WITH NO
         SIGNIFICANT WEATHER AND/OR OBSTRUCTIONS TO VISIBILITY.




USA.gov is the U.S. government's official web portal to all federal, state and local government web resources and services.